sat.trackr.live / text

‹ back to catalog

STARLINK-37498

NORAD 69459 · 2026-127S

PAYLOAD ACTIVE UNKNOWN

§ Identity

Operator
Country
US
Launch date
2026-06-08
Launch site
AFETR
Launch vehicle
Mass (kg)
RCS (m²)

Purposes: comms

External: N2YO · Heavens-Above · Gunter

§ Orbital elements

Epoch: 2026-09-20T00:39:11.237760Z

Period
93.85 min
Inclination
53.1575°
Eccentricity
0.0001418
Mean motion
15.34432603 rev/d
Perigee alt
461.6 km
Apogee alt
463.6 km
Semi-major
6,840.7 km
B*
7.7532e-4
RAAN
167.6256°
Arg perigee
193.0718°
Mean anomaly
167.0248°
Rev number
1,612

§ Raw data

STARLINK-374981 69459U 26127S   26263.02721340  .00025937  00000+0  77532-3 0  99912 69459  53.1575 167.6256 0001418 193.0718 167.0248 15.34432603 16126

JSON: /api/v1/satellites/69459 · /tle

For live sub-satellite position, see the globe view (requires WebGL).

§ Visibility from observer

Set your observer location to see the next 7 days of passes ≥ 10°. The values pass through the URL so the page stays shareable.

No JS? Fill the form by hand. The geolocation button needs JavaScript.